Sexton Summit, OR

10:52 AM PDT on October 19, 2019 (GMT -0700)
Sexton Summit

Weather History for KSXT - August, 2019

Change the Weather History Date:

Tuesday, August 13, 2019

  Actual Average Record
Temperature  
Mean Temperature 69 °F -  
Max Temperature 79 °F 75 °F 97 °F (2002)
Min Temperature 59 °F 52 °F 45 °F (1999)
Cooling Degree Days 4    
Growing Degree Days 19 (Base 50)    
Moisture  
Dew Point 50 °F    
Average Humidity 55    
Maximum Humidity 70    
Minimum Humidity 35    
Precipitation  
Precipitation 0.00 in - - ()
Sea Level Pressure  
Sea Level Pressure 30.04 in    
Wind  
Wind Speed 4 mph (North)    
Max Wind Speed 12 mph    
Max Gust Speed 20 mph    
Visibility 10 miles    
Events      
Averages and records for this station are not official NWS values.
T = Trace of Precipitation, MM = Missing Value Source: NWS Daily Summary

Daily Weather History Graph

Daily Weather History Graph

Search for Another Location

Airport or City:

Astronomy

Aug. 13, 2019 Rise Set
Actual Time 6:17 AM PDT 8:18 PM PDT
Civil Twilight 5:47 AM PDT 8:48 PM PDT
Nautical Twilight 5:09 AM PDT 9:26 PM PDT
Astronomical Twilight 4:28 AM PDT 10:06 PM PDT
Moon 7:39 PM PDT (8/13) 4:21 AM PDT (8/13)
Length of Visible Light 15h 01m
Length of Day
14h 00m
Waxing Gibbous, 97% of the Moon is Illuminated
Aug 13
Waxing Gibbous
Aug 15
Full
Aug 23
Last Quarter
Aug 30
New
Sep 5
First Quarter

Hourly Weather History & Observations

Time (PDT) Temp. Dew Point Humidity Pressure Visibility Wind Dir Wind Speed Gust Speed Precip Events Conditions
12:56 AM 60.1 °F 48.9 °F 67% 30.03 in 10.0 mi North 9.2 mph - N/A   Clear
1:56 AM 59.0 °F 48.9 °F 69% 30.02 in 10.0 mi North 4.6 mph - N/A   Clear
2:56 AM 59.0 °F 48.0 °F 67% 30.01 in 10.0 mi Calm Calm - N/A   Clear
3:56 AM 61.0 °F 46.0 °F 58% 30.00 in 10.0 mi Calm Calm - N/A   Clear
4:56 AM 62.1 °F 44.1 °F 52% 29.99 in 10.0 mi Calm Calm - N/A   Clear
5:56 AM 61.0 °F 45.0 °F 56% 30.00 in 10.0 mi Calm Calm - N/A   Clear
6:56 AM 61.0 °F 46.9 °F 60% 30.01 in 10.0 mi SSE 3.5 mph - N/A   Clear
7:56 AM 63.0 °F 48.9 °F 60% 30.03 in 10.0 mi SE 3.5 mph - N/A   Clear
8:56 AM 63.0 °F 51.1 °F 65% 30.04 in 10.0 mi Calm Calm - N/A   Clear
9:56 AM 68.0 °F 53.1 °F 59% 30.04 in 10.0 mi Calm Calm - N/A   Clear
10:56 AM 69.1 °F 53.1 °F 57% 30.06 in 10.0 mi Calm Calm - N/A   Clear
11:56 AM 71.1 °F 50.0 °F 47% 30.06 in 10.0 mi Calm Calm - N/A   Clear
12:56 PM 73.0 °F 48.9 °F 42% 30.06 in 10.0 mi Variable 4.6 mph - N/A   Clear
1:56 PM 75.9 °F 51.1 °F 42% 30.05 in 10.0 mi NW 6.9 mph - N/A   Clear
2:56 PM 78.1 °F 51.1 °F 39% 30.04 in 10.0 mi Variable 3.5 mph - N/A   Clear
3:56 PM 79.0 °F 48.9 °F 35% 30.02 in 10.0 mi Variable 3.5 mph - N/A   Clear
4:56 PM 78.1 °F 48.0 °F 35% 30.02 in 10.0 mi Calm Calm - N/A   Clear
5:56 PM 75.9 °F 50.0 °F 40% 30.03 in 10.0 mi North - - N/A   Clear
6:56 PM 72.0 °F 51.1 °F 48% 30.03 in 10.0 mi Variable 4.6 mph - N/A   Clear
7:56 PM 66.9 °F 50.0 °F 54% 30.04 in 10.0 mi Variable 5.8 mph - N/A   Clear
8:56 PM 64.9 °F 53.1 °F 65% 30.07 in 10.0 mi North 8.1 mph - N/A   Clear
9:56 PM 64.0 °F 53.1 °F 67% 30.08 in 10.0 mi North 11.5 mph - N/A   Clear
10:56 PM 64.0 °F 52.0 °F 65% 30.07 in 10.0 mi North 11.5 mph 19.6 mph N/A   Clear
11:56 PM 62.1 °F 52.0 °F 70% 30.07 in 10.0 mi North 9.2 mph - N/A   Clear